STARLINK-34213, 64148

Orbit data source: Space-Track

STARLINK-34213, 64148 is a payload satellite owned by SpaceX/Seattle (US) in SSO that was launched on Tue, 27 May 2025 UTC via an FALCON 9 launch vehicle from the Air Force Western Test Range (AFWTR). Payload-class satellites include a variety of spacecraft equipped with specific instruments for various scientific and technological missions. These include communications satellites like Starlink; space stations such as the ISS; scientific satellites like the Hubble; Earth observation satellites from companies like Planet Labs, Umbra, and HawkEye 360; GPS; miniature CubeSats for education and research; and military/defense satellites.

Loading next visibility...
Identifier
64148, 2025-112C
Orbit
SSO
Country
Flag of USUS
Related business
Manufacturer
SpaceX/Seattle
Mission
Operational Commercial Communications
Bus & Motor
STARLINK V2MO, Unknown motor
Mass
575 kg wet, ~530 kg dry
Launch date (UTC)
2025-05-27 (1 year ago)
Launch vehicle
FALCON 9
Launch site
Air Force Western Test Range (AFWTR)
Object type
Payload
Rocket body
Debris
Shape & HBR
Box + 1 Pan, 17.7 m
Radar Cross Section
41.120 m², Large (>1 m²)

Expand to show TLE details & history
Last TLE update: 1 day ago

TLE from 1 day ago
0 STARLINK-34213
1 64148U 25112C   26236.10367103  .00022436  00000-0  69518-3 0  9993
2 64148  97.2825 283.6257 0001485 111.3425 248.7976 15.33446866 68559
Epoch: 2026-08-24T02:29Z
TLE epoch observation values (Epoch: 2026-08-24T02:29:17.176Z)
Latitude
-0.00003°
Longitude
-86.08604°
Altitude
469.017 km
Speed
7.631 km/s
True Right ascension
18h 54m 30s
True Declination
0° 00' 00"
Sunlit
Object was in full shadow at epoch
Visualization orbit readout
Latitude
Unknown
Longitude
Unknown
Altitude
Unknown
Speed
Unknown
Apparent Right ascension
Unknown
Apparent Declination
Unknown
Sunlit
N/A
Visualization observer readout
Local Sidereal Time
18:44:27
Azimuth
Unknown
Elevation
Unknown
Doppler factor
Unknown
Orbital elements
Apogee altitude
463.496 km
Perigee altitude
461.464 km
Semi-major axis
6,840.617 km
Eccentricity
0.00015
Inclination
97.2825°
RAAN
283.6257°
Arg. of periapsis
111.3425°
True anomaly
248.78174°
Mean anomaly
248.7976°
Eccentric anomaly
248.78967°
Mean motion
3.83619 °/min
Orbital period
93.84 mins
BSTAR
0.00069518
Loading maneuver chart data...
Computing Atmospheric mass density...
Loading historical data...
Loading historical data...
Loading historical data...
Loading historical data...
Loading historical data...
Loading historical data...
Loading historical data...

Documentation

Showing up to 5 results
|